Погода в Амбролаури

Погода в Амбролаури : погода сейчас, прогноз погоды и архив. Всё, что Вы хотите узнать о погоде в Амбролаури!

Поиск расширенной информации на нашем сайте:

Другие новости

Новости СМИ2

Главная страница сайта

Новости сайта

03.07.2017

Напоминаем, что на нашем специализированном сайте Метеоцентр.Азия вы можете получить высокодетализированные автоматические прогнозы погоды по пунктам России, СНГ и мира в авиационном формате (включающие направление и скорость ветра, видимость, явления погоды, количество и форму облачности, нижнюю и верхнюю границу облачности).


Погода в Амбролаури - сегодня

Время (UTC), дата Ветер
(°,м/с) 
Видим.   Явления Облачность Т
(°С)
Тd
(°С)
f(%) Тe
(°С)
Pmin
(гПа)
dP
(гПа)
Po
(мм)
O2
(г/м3)
Тmin Tmax R s Состояние
почвы
09 13.09.17 270 (З) 5-4{04}  н/о    н/о 
+27.9 +13.5 41 +35  1013  -1.9  714  258           
12 13.09.17 270 (З) 6-5{07}  н/о    н/о 
+33.3 +10.1 24 +36  1010.9  -1  713  254         
06 14.09.17 230 (ЮЗ) 1-1{01}  н/о    н/о 
+17.8 +10.4 62 +22  1020.7  718  270         
09 14.09.17 270 (З) 4-3{05}  н/о    н/о 
+26.9 +11.7 39 +31  1016.2  -2.4  716  260           
12 14.09.17 270 (З) 7-6{06}  н/о    н/о 
+30.5 +12.8 34 +37  1013.3  -2  715  257         
06 15.09.17 300 (СЗ) 2-1{03}  н/о    н/о 
+22 +14.1 61 +30  1015.9  715  264         
09 15.09.17 100 (В) 4-4{04}  н/о    н/о 
+32.8 +12.8 30 +39  1010.7  -2.7  713  254           
12 15.09.17 120 (ЮВ) 4-4{05}  н/о    н/о 
+34.9 +13.2 27 +42  1007.9  -2.2  712  252         
09 19.09.17 250 (З) 3-2{03}  н/о    н/о 
+28.3 +12.5 38 +34  1012.3  -2.4  714  258           
12 19.09.17 240 (ЮЗ) 3-2{03}  н/о    н/о 
+34 +7.1 19 +34  1009.3  -1.7  712  254         
06 20.09.17 190 (Ю) 1-1{01}  н/о    н/о 
+20.4 +10.1 52 +23  1015.9  715  266         
09 20.09.17 260 (З) 3-2{03}  н/о    н/о 
+28.8 +12.1 36 +34  1011.3  -2.6  713  258           
12 20.09.17 280 (З) 4-3{04}  н/о    н/о 
+34.6 +10.9 24 +38  1008.1  -1.9  712  252         
06 21.09.17 270 (З) 3-3{03}  н/о    н/о 
+18 +10.3 61 +22  1014.2  713  268         
09 21.09.17 260 (З) 3-3{03}  н/о    н/о 
+28 +10.6 34 +31  1009  -2.9  711  258           
12 21.09.17 260 (З) 4-4{04}  н/о    н/о 
+33.4 +13.2 29 +40  1004.8  -2.9  709  252         
06 22.09.17 270 (З) 4-3{03}  н/о    н/о 
+21.5 +12.3 56 +27  1010.6  711  263         
09 22.09.17 260 (З) 4-3{04}  н/о    н/о 
+30.2 +12.8 34 +37  1006.4  -2.1  710  255           
12 22.09.17 270 (З) 8-7{10}  н/о    н/о 
+35.2 +10.6 22 +38  1004.4  -1.1  709  251         
06 23.09.17 100 (В) 2-2  н/о    н/о 
+21 +14.1 65 +29  1014.1  714  264         
09 23.09.17 250 (З) 3-3{03}  н/о    н/о 
+25.5 +14 49 +34  1011.6  713  260           
12 23.09.17 290 (З) 5-4  н/о    н/о 
+30.3 +16.1 42 +42  1009.2  712  255         
06 24.09.17 290 (З) 2-1  н/о    н/о 
+18.1 +16.3 89 +31  1021.8  719  268         
09 24.09.17 190 (Ю) 2-1{02}  н/о    н/о 
+22.5 +14.3 60 +31  1019.4  -1.3  718  264           
12 24.09.17 270 (З) 7-6{07}  н/о    н/о 
+24.6 +15.4 57 +35  1017.8  -1.1  717  262        70   
Время (UTC), дата Ветер
(°,м/с) 
Видим.   Явления Облачность Т
(°С)
Тd
(°С)
f(%) Тe
(°С)
Pmin
(гПа)
dP
(гПа)
Po
(мм)
O2
(г/м3)
Тmin Tmax R s Состояние
почвы

Для получения пояснительной информации подведите курсор к названию столбца.

ПОГОДА в Амбролаури - архив

Всё, что Вы хотите узнать о погоде в Амбролаури - удобно и подробно!

Выберите нужную дату (начиная с 1 января 2015* года) и нажмите кнопку "Найти".
Будут отображены архивные сводки погоды по пункту Амбролаури, начиная с указанной даты.


Отображать данные в формате CSV (для использования в таблицах Excel)


Внимание! Наш архив погоды предназначен исключительно для личного некоммерческого использования в познавательных целях. Если Вам необходимы официальные справки о состоянии погоды (для производственных, юридических, коммерческих и т.п. целей), обращайтесь в органы Росгидромета.

*Примечание: данная дата относится к архиву по метеостанциям СССР (Россия, СНГ, Балтия).
Архив по метеостанциям Зарубежной Европы и Азии (кроме Китая) хранится 10 дней, по другим регионам земного шара (Китай, Африка, Америка, Австралия, Океания) - 1 день.

Амбролаури - район местоположения метеостанции


Название, широта, долгота, высота метеостанции:
Амбролаури 42.5°ш. 43.2°д. 544 м над ур. моря [Грузия]

Дополнительная информация

В oтличие oт бoльшинства пoгoдных сайтoв мы публикуем пoдрoбную метеoинфoрмацию в детальнoм прoфессиoнальнoм фoрмате.

Характеристики температуры и влажнoсти вoздуха измеряются на высoте 2 м в тени вдали oт зданий и деревьев.
Скoрoсть ветра измеряется на высoте 10 м (на урoвне рoста челoвека скoрoсть ветра ниже в 1.5-2 раза). Если метеoстанция нахoдится в гoрoде или в лесу, тo скoрoсть ветра занижена на 2-4 м/с пo сравнению с oткрытым местoм. Скoрoсть ветра над акватoриями крупных рек и oзёр, а также на вершинах хoлмoв на 2-5 м/с выше, чем в oбычных услoвиях.
Атмoсфернoе давление в разных тoчках местнoсти мoжет значительнo oтличаться oт давления на метеoстанции, в зависимoсти oт услoвий рельефа (при пoдъёме на 10 м давление пoнижается примернo на 1 мм рт.ст.).